www.pogodaiklimat.ru

Архив погоды в Магадане (Магаданская область, Россия)

Время
(UTC), дата
21 23.11
00 24.11
03 24.11
06 24.11
09 24.11
12 24.11
15 24.11
18 24.11
21 24.11
00 25.11
03 25.11
06 25.11
09 25.11
12 25.11
15 25.11
18 25.11
21 25.11
00 26.11
03 26.11
06 26.11
09 26.11
12 26.11
15 26.11
18 26.11
21 26.11
00 27.11
03 27.11
06 27.11
09 27.11
12 27.11
15 27.11
18 27.11
21 27.11
00 28.11
03 28.11
06 28.11
09 28.11
12 28.11
15 28.11
18 28.11
21 28.11
00 29.11
03 29.11
06 29.11
09 29.11
12 29.11
15 29.11
18 29.11
21 29.11
00 30.11
03 30.11
06 30.11
09 30.11
12 30.11
15 30.11
18 30.11
Ветер
(напр.,м/с)
Видим. Явления Облачность Т
(С)
Тd
(С)
f
(%)
Тe
(С)
Тes
(С)
Комфортность P
(гПа)
Po
(гПа)
Тmin
(С)
Tmax
(С)
R
(мм)
R24
(мм)
S
(см)
СВ 3 50 км 1/0
[Ci fib]
-17.4 -23.2 61 -24 -24 прохладно 1003.4 988.0 -17.7 47
СВ 3 50 км 3/3 600 м
[Cb calv Ac trans]
-16.8 -22.9 59 -24 -24 прохладно 1004.1 988.7
СВ 3 50 км 8/4 600 м
[Cb calv Ac trans]
-15.0 -21.5 58 -22 -21 прохладно 1003.8 988.6
В 3 50 км 1/1 600 м
[Cb calv]
-16.0 -22.2 59 -23 -23 прохладно 1005.1 989.8
СВ 3 50 км 5/0
[Ac trans Ci fib]
-18.2 -23.6 63 -25 -25 холодно 1006.1 990.6 -14.4
СВ 3 50 км 8/0
[Ac trans Ci fib]
-19.1 -25.0 60 -27 -27 холодно 1007.5 991.9
СВ 4 50 км 3/0
[Ci fib]
-20.3 -26.2 59 -29 -29 очень
холодно
1008.3 992.7
В 4 50 км 5/0
[Ac trans Ci fib]
-20.6 -26.6 59 -30 -30 очень
холодно
1009.0 993.3
В 4 50 км 8/3 1000 м
[Sc Ac trans Ci fib]
-20.9 -26.9 58 -30 -30 очень
холодно
1009.3 993.6 -21.1 45
СВ 5 50 км 9/4 1000 м
[Sc Ac trans Ci fib]
-20.3 -27.1 54 -30 -30 очень
холодно
1010.3 994.6 -21.4
В 5
{11}
50 км {метель} 10/3 1000 м
[Sc Ac trans Cs]
-17.2 -25.3 49 -27 -26 очень
холодно
1010.2 994.7
В 3 50 км {метель} 10/3 1000 м
[Sc Ac trans Cs]
-18.5 -26.1 51 -26 -26 холодно 1011.9 996.3
В 3 50 км 9/3 1000 м
[Sc Ac trans Ci fib]
-21.0 -27.0 58 -29 -29 очень
холодно
1013.7 997.9 -17.0
СВ 3 50 км 8/0
[Ac trans Ci fib]
-21.3 -27.3 58 -29 -29 очень
холодно
1015.8 1000.0
СВ 4 50 км 5/0
[Ac trans Ci fib]
-22.2 -28.5 56 -32 -32 опасность
обморожения
1017.1 1001.2
СВ 4 50 км 4/0
[Ci fib]
-23.1 -29.3 57 -33 -33 опасность
обморожения
1018.1 1002.1
В 4 50 км 3/0
[Ci fib]
-23.4 -29.6 57 -33 -33 опасность
обморожения
1019.9 1003.9 -23.7 43
СВ 4 50 км ясно -22.8 -29.7 53 -32 -32 опасность
обморожения
1021.0 1005.0
В 3 50 км ясно -19.3 -28.8 43 -27 -26 очень
холодно
1020.6 1004.8
В 5 50 км 3/3 600 м
[Cb calv]
-20.1 -29.2 44 -30 -30 очень
холодно
1020.7 1004.9
В 5
{10}
50 км {метель} 5/1 600 м
[Cb calv Ac trans]
-18.9 -28.4 43 -29 -29 очень
холодно
1020.2 1004.4 -18.7
В 6
{11}
50 км позёмок {метель} 9/6 600 м
[Cb calv Ac trans]
-17.4 -26.9 43 -28 -28 очень
холодно
1019.7 1004.1
В 7-11
{11}
50 км позёмок {метель} 9/8 600 м
[Cb calv Ac trans]
-15.8 -22.9 54 -26 -26 холодно 1017.9 1002.4
СВ 7-11
{12}
50 км позёмок {метель} 9/8 600 м
[Cb calv Ac trans]
-13.7 -17.8 71 -24 -24 холодно 1016.2 1000.8
В 7-10
{10}
50 км позёмок {метель} 9/8 600 м
[Cb calv Ac trans]
-12.5 -16.2 74 -22 -22 прохладно 1014.3 999.1 -19.9 39
В 6
{11}
2000 м слаб. ливневой снег {метель} 10/10 600 м
[Cb cap]
-11.5 -13.8 83 -20 -20 прохладно 1012.1 997.0
СВ 4
{10}
10 км слаб. ливневой снег {метель} 10/8 600 м
[Cb cap Ac und]
-9.0 -11.9 79 -16 -16 по сезону 1009.0 994.0
В 7-15
{15}
10 км метель {ливн. снег} 10/8 600 м
[Cb calv Ac und]
-6.8 -12.5 64 -15 -15 по сезону 1006.6 991.8
В 6
{15}
2000 м слаб. ливневой снег {метель} 10/10 600 м
[Cb cap]
-7.8 -9.9 85 -16 -16 по сезону 1005.3 990.5 -6.7 0.4
В 6-10
{11}
500 м ливневой снег {метель} 10/10 600 м
[Cb cap]
-7.7 -8.7 93 -16 -16 по сезону 1004.0 989.2
В 6
{11}
2000 м слаб. ливневой снег {метель} 10/10 600 м
[Cb cap]
-6.8 -8.1 90 -15 -15 по сезону 1002.3 987.5
В 5-10
{11}
2000 м слаб. ливневой снег {метель} 10/10 600 м
[Cb cap]
-7.1 -8.7 88 -15 -15 по сезону 1000.5 985.8
В 7-12
{12}
4000 м слаб. ливневой снег {метель} 10/10 600 м
[Cb cap]
-6.4 -8.6 84 -15 -15 по сезону 999.1 984.4 -8.0 3 42
СВ 7-12
{12}
2000 м слаб. ливневой снег {метель} 10/10 600 м
[Cb cap]
-6.7 -8.2 89 -15 -15 по сезону 998.8 984.1
СВ 7-12
{13}
2000 м слаб. ливневой снег {метель} 10/10 600 м
[Cb cap]
-6.2 -7.9 88 -15 -15 по сезону 998.3 983.6
СВ 6-10
{13}
2000 м слаб. ливневой снег {метель} 10/10 600 м
[Cb cap]
-6.3 -7.3 93 -14 -14 по сезону 998.9 984.2
СВ 5
{10}
2000 м слаб. ливневой снег {метель} 10/10 600 м
[Cb cap]
-6.7 -7.7 93 -14 -14 по сезону 999.3 984.6 -6.2 7
В 5 2000 м слаб. ливневой снег {метель} 10/10 600 м
[Cb cap]
-6.9 -7.9 93 -14 -14 по сезону 1000.1 985.3
В 5 2000 м слаб. ливневой снег 10/10 600 м
[Cb cap]
-6.9 -8.2 90 -14 -14 по сезону 1000.4 985.7
В 7-10
{11}
2000 м слаб. ливневой снег {метель} 10/10 600 м
[Cb cap]
-7.1 -8.9 87 -16 -16 по сезону 1001.4 986.6
В 5
{11}
4000 м слаб. ливневой снег {метель} 10/10 600 м
[Cb cap]
-8.4 -10.3 86 -16 -16 по сезону 1002.9 988.1 -8.4 4 51
В 6-10
{10}
4000 м слаб. ливневой снег {метель} 10/10 600 м
[Cb cap]
-9.8 -11.8 85 -18 -18 прохладно 1004.0 989.1 -9.8
В 7-10
{11}
4000 м слаб. ливневой снег {метель} 10/10 600 м
[Cb cap]
-10.9 -13.8 79 -20 -20 холодно 1005.4 990.4
В 4
{10}
20 км слаб. ливневой снег {метель} 9/6 600 м
[Cb cap Ac trans]
-12.2 -15.3 78 -19 -19 холодно 1007.1 991.9
В 5 10 км слаб. ливневой снег 9/9 600 м
[Cb cap]
-12.5 -16.0 75 -21 -21 очень
холодно
1008.9 993.7 -8.4 2
СВ 5 4000 м слаб. ливневой снег 10/10 600 м
[Cb cap]
-13.4 -15.7 83 -22 -22 очень
холодно
1010.7 995.5
В 5
{10}
20 км слаб. ливневой снег 9/8 600 м
[Cb cap Ac trans]
-13.2 -16.5 76 -22 -22 очень
холодно
1009.8 994.5
СВ 7-10
{11}
10 км слаб. ливневой снег {метель} 9/8 300 м
[Cb cap Ac trans]
-12.5 -16.6 71 -22 -22 очень
холодно
1007.7 992.5
В 7-15
{15}
20 км слаб. ливневой снег {метель} 9/8 600 м
[Cb cap Ac trans]
-12.6 -15.6 78 -22 -22 очень
холодно
1002.7 987.6 -13.7 0.2 50
В 10-18
{20}
500 м слаб. ливневой снег {метель} 10/10 600 м
[Cb cap]
-9.3 -11.2 86 -20 -20 по сезону 995.2 980.4
В 10-18
{23}
500 м слаб. ливневой снег {метель} 10/10 600 м
[Cb cap]
-7.4 -9.2 87 -18 -18 по сезону 986.5 971.9
В 10-17
{20}
500 м ливневой снег {метель} 10/10 600 м
[Cb cap]
-5.7 -6.5 94 -16 -16 по сезону 980.8 966.4
ЮВ 11-18
{21}
2000 м слаб. ливневой снег {метель} 10/10 600 м
[Cb cap]
-2.8 -4.5 88 -12 -12 тепло 980.0 965.8 -2.0 3
ЮВ 9-14
{17}
2000 м слаб. ливневой снег {метель} 10/10 600 м
[Cb cap]
-3.1 -4.0 93 -12 -12 тепло 979.7 965.5
ЮВ 8-13
{15}
500 м ливневой снег {метель} 10/10 600 м
[Cb cap]
-3.1 -3.6 96 -12 -12 тепло 980.2 966.0
Ю 7-11
{22}
4000 м слаб. ливневой снег {метель} 10/10 600 м
[Cb cap]
-3.5 -6.9 77 -11 -11 тепло 983.0 968.7
Местоположение метеостанции Магадан (Магаданская область, Россия): широта 59.55 долгота 150.70 высота над уровнем моря 116 м.
В архиве по умолчанию представлена погода в Магадане за последнюю неделю. Архивные данные за месяц целиком и за предыдущие месяцы, начиная с января 2011 года, Вы можете получить, выбрав интересующий диапазон дат из раскрывающегося списка и нажав кнопку "Найти!".
*Определитесь, кто Вы:
Внимание! Время в таблицах - всемирное. Для получения местного времени необходимо прибавить поправку, которая равна 11 ч.
Смотрите также архив погоды в соседних городах и на ближайших метеорологических станциях:
Партнеры нашего сайта:      
Пояснения к столбцам:
  • Ветер - указаны скорость ветра в м/с - средняя за 10 мин, порывы в срок и между сроками (в фигурных скобках) и направление, откуда дует ветер: С - северный,
  • СВ - северо-восточный, В - восточный, ЮВ - юго-восточный, Ю - южный, ЮЗ - юго-западный, З - западный, СЗ - северо-западный.
  • Видимость - горизонтальная дальность видимости в метрах или километрах. При видимости от 1 до 10 км при отсутствии осадков обычно наблюдается дымка, при ухудшении видимости до 1 км и менее - туман. В сухую погоду видимость может ухудшаться дымом, пылью или мглою.
  • Явления - указаны атмосферные явления, наблюдавшиеся в срок или в последний час перед сроком; фигурными скобками обозначены явления, наблюдавшиеся между сроками (за 1-3 часа до срока); квадратными скобками обозначены град или гололедные отложения с указанием их диаметра в мм.
  • Облачность - указаны через наклонную черту общая и нижняя облачность в баллах и высота нижней границы облаков в метрах; квадратными скобками обозначены формы облаков: Ci - перистые, Cs - перисто-слоистые, Cc - перисто-кучевые, Ac - высококучевые, As - высокослоистые, Sc - слоисто-кучевые, Ns - слоисто-дождевые, Cu - кучевые, Cb - кучево-дождевые. Подробнее классификацию облаков см. в Атласе облаков (PDF).
  • T - Температура воздуха - температура, измеренная на высоте 2 м над землей.
  • Td - Температура точки росы - температура, при понижении до которой содержащийся в воздухе водяной пар достигнет насыщения.
  • f - Относительная влажность воздуха - влажноcть воздуха, измеренная на высоте 2 м над землей.
  • Te - Эффективная температура - температура, которую ощущает одетый по сезону человек в тени. Характеристика душности погоды. При расчете учитывается влияние влажности воздуха и скорости ветра на теплоощущения человека.
  • Tes - Эффективная температура на солнце - температура, которую ощущает человек, с поправкой на солнечный нагрев. Характеристика знойности погоды. Зависит от высоты солнца над горизонтом, облачности и скорости ветра. Ночью, в пасмурную погоду, а также при ветре 12 м/с и более поправка равна нулю.
  • P - Атмосферное давление - приведенное к уровню моря атмосферное давление.
  • Po - Атмосферное давление - измеренное на уровне метеостанции атмосферное давление.
  • Tmin - Минимальная температура - минимум температуры воздуха на высоте 2 м над землей.
  • Tmax - Максимальная температура - максимум температуры воздуха на высоте 2 м над землей.
  • R - Количество осадков - Количество выпавших осадков за период времени, мм. При наведении курсора мыши на число - период времени, за который выпало указанное количество осадков.
  • R24 - Количество осадков - Количество выпавших осадков за 24 часа, мм.
  • S - Снежный покров - Высота снежного покрова, см. При наведении курсора мыши на число - состояние снежного покрова и степень покрытия местности в баллах.